Location: Home
(42.5358°N, 72.7383°W)
Time: 09:39:33
(UTC-05:00)

Vanguard 2 - Visible Passes

Search period start: 09 December 2021 00:00
Search period end: 19 December 2021 00:00
Orbit: 554 x 2936 km, 32.9° (Epoch: 09 December)

Date Brightness Start Highest point End Pass type
(mag) Time Alt. Az. Time Alt. Az. Time Alt. Az.
09 Dec 11.0 16:39:14 10° SW 16:43:04 16° SSW 16:47:54 10° SSE visible
10 Dec 11.3 16:59:00 10° SW 17:00:43 11° SSW 17:02:35 10° S visible
18 Dec 10.9 06:29:36 10° S 06:33:27 14° SSE 06:36:37 10° SE visible
